Starlink 4051

operational
NORAD ID: 53273 Int'l Des: 2022-086 Owner: SPXS Country: US Constellation: starlink
LEOCIRCULAR

About Starlink 4051

Description loading...

Live Position

Loading 3D Globe...

Upcoming Passes

Altitude History

Altitude vs Time

uPlot chart will show altitude changes over time

Two-Line Element Set

1 53273U 22086AH 25259.68316139 -.00001407 00000-0 -70338-4 0 9997
2 53273 53.2152 245.2698 0000996 87.1249 272.9858 15.08842874174922
Epoch: Sep 16, 2025 • Age: 34 hours

Current Status

Altitude 542.9 km
Velocity 7.60 km/s
Sub-Earth Point 40.68°N, 13.1°W
Launch Date Jul 24, 2022
Age 3.1 years
Type internet

Technical Details

Classification Payload
Mass 297.00 kg
Dry Mass 275.00 kg
Total Mass 297.00 kg
Length 0.20 m
Diameter 2.80 m
Span 9.00 m
Shape Box + pan
Manufacturer SPXS
Bus Type Starlink
Phase Status In Orbit
Owner/State SPXS/US

Large Constellations

Loading constellations...